Temperature
14 14 15 15 15 16 18 20 21 21 21 21 21 21 20 20 21 19 18 17 17 17 17 17 17 17 17 17 17 17 16 16 16 16 16 16 16 16 16 16 16 16 16 16 16 16 16 16 16
14 14 14 15 16 17 18 20 20 20 20 20 20 21 20 19 19 18 17 17 17 17 17 17 16 16 16 16 16 16 16 16 16 16 16 16 16 16 16 16 16 16 16 16 16 16 16 16 16
14 14 15 16 16 17 19 19 19 19 19 20 20 20 19 18 18 17 17 17 16 16 16 16 16 16 16 16 16 16 16 16 16 16 16 16 16 16 16 16 16 16 16 16 16 16 16 16 16
13 14 15 15 17 18 19 19 19 18 19 19 19 18 18 17 17 17 16 16 16 16 16 16 16 16 16 16 16 16 16 16 16 16 16 16 16 16 16 16 16 15 16 16 16 16 16 16 16
13 14 15 16 17 18 19 19 19 18 18 19 19 17 16 16 16 16 16 16 16 15 16 16 16 16 15 15 16 16 16 16 16 16 16 16 16 16 16 16 15 15 15 15 15 15 15 15 15
14 15 15 15 17 18 18 18 18 18 18 18 18 17 15 15 15 15 15 15 15 15 15 15 15 15 15 15 15 15 16 16 16 16 16 16 16 16 15 15 15 15 15 15 15 15 15 15 15
14 14 15 16 17 17 18 18 17 17 17 17 17 16 15 15 15 15 15 15 14 15 15 15 15 15 15 15 15 15 15 15 15 15 15 15 15 15 15 15 15 15 15 15 15 15 15 15 15
13 14 15 16 17 17 17 17 17 17 16 16 16 16 15 14 15 14 14 14 14 14 14 14 14 14 14 15 15 15 15 15 15 15 15 15 15 15 15 15 15 15 15 15 15 15 15 15 15
13 13 14 16 16 16 17 16 16 15 16 15 15 15 15 14 14 14 14 14 14 14 14 14 14 14 14 14 14 14 14 15 15 15 15 15 14 14 14 15 15 15 15 15 15 15 15 15 15
14 13 15 16 16 15 16 16 15 15 15 15 14 14 14 14 13 13 13 13 13 13 14 14 14 14 14 14 14 14 14 14 14 14 14 14 14 14 14 14 14 14 14 14 14 14 14 14 14
14 14 15 16 15 15 15 15 15 15 14 15 14 14 13 13 13 13 13 13 13 13 13 13 13 14 14 14 13 13 14 14 14 14 14 14 14 14 14 14 14 14 14 14 14 14 14 14 14
14 15 15 15 14 14 14 15 14 14 14 14 14 14 13 13 13 13 13 13 13 13 13 13 13 13 13 13 13 13 13 13 13 14 14 14 13 13 13 14 14 14 14 14 14 14 14 14 14
14 14 14 14 14 14 14 14 14 14 14 14 14 13 13 13 13 13 12 12 13 13 13 13 13 13 13 13 13 13 13 13 13 13 13 13 13 13 13 13 13 13 13 13 13 13 13 13 13
14 14 14 14 14 14 14 14 14 13 14 14 13 13 13 13 12 12 12 12 12 12 13 13 13 13 13 13 13 13 13 13 13 13 13 13 13 13 13 13 13 13 13 13 13 13 13 13 13
14 13 13 14 14 14 13 13 13 14 14 13 13 13 12 12 12 12 12 12 12 12 12 12 13 13 13 13 13 13 13 13 13 13 13 13 13 13 13 13 13 13 13 13 13 13 13 13 13
14 13 13 14 14 14 13 13 14 14 14 13 13 13 12 12 12 12 12 12 12 12 12 12 12 12 12 12 12 12 12 12 12 12 12 12 12 13 13 13 13 13 13 13 13 13 13 13 13
13 13 13 14 14 14 13 13 14 14 14 13 13 12 12 12 12 12 12 12 12 12 12 12 12 12 12 12 12 12 12 12 12 12 12 12 12 12 12 12 12 12 12 12 12 12 12 12 12
12 13 14 13 14 13 13 13 13 14 14 13 13 13 12 12 12 11 12 11 11 11 11 11 12 12 12 12 12 12 12 12 12 12 12 12 12 12 12 12 12 12 12 12 12 12 12 12 12
13 13 13 14 14 13 13 13 13 14 13 13 13 13 12 12 12 11 11 11 11 11 11 11 11 11 11 11 11 12 11 11 12 12 12 12 12 12 12 12 12 12 12 12 12 12 12 11 11
13 13 13 13 13 13 12 13 13 13 13 13 13 12 12 12 12 11 11 11 11 11 11 11 11 11 11 11 11 11 11 11 11 11 11 11 11 11 11 12 11 11 11 11 11 11 11 11 11
13 12 12 12 12 13 13 12 13 13 14 13 13 12 12 12 11 11 11 11 11 11 11 11 11 11 11 11 11 11 11 11 11 11 11 11 11 11 11 11 11 11 11 11 11 11 11 11 10
12 13 12 12 11 11 12 10 13 13 12 12 12 12 12 12 11 11 11 11 10 10 10 10 10 10 11 11 10 11 10 10 10 10 11 11 11 11 11 11 11 11 11 11 10 10 10 10 10
11 12 12 12 11 11 12 11 12 13 12 12 12 12 12 12 11 11 10 10 10 10 10 10 10 10 10 10 10 10 10 10 10 10 10 10 10 10 10 11 10 11 10 10 10 10 10 10 10
11 11 12 11 11 10 12 11 11 12 12 12 12 12 12 11 11 10 10 10 10 10 10 10 10 10 10 10 10 10 10 9 9 9 10 10 10 10 10 10 10 10 10 10 10 10 10 10 9
11 10 9 9 9 10 12 12 11 12 13 12 11 12 11 11 10 10 10 10 9 9 9 10 10 10 10 10 10 10 9 9 9 9 9 9 9 10 10 10 10 10 10 10 10 9 9 9 9
10 10 9 9 10 10 11 11 11 12 12 12 12 11 11 10 10 9 9 9 9 9 9 9 9 9 9 9 9 9 9 9 9 9 9 9 9 9 9 9 9 9 9 9 9 9 9 9 9
10 9 10 9 10 9 11 12 11 12 11 11 11 11 10 10 10 9 9 9 9 9 9 9 9 9 9 9 9 9 9 9 9 9 9 9 9 9 9 9 9 9 9 9 9 9 8 8 8
9 9 9 8 9 9 11 12 10 10 10 10 9 10 10 9 9 9 9 9 9 9 9 9 9 9 9 9 9 9 9 9 9 9 8 8 8 8 8 8 8 8 8 8 8 8 8 8 8
8 9 9 8 9 8 9 10 11 10 10 10 9 10 9 9 9 9 8 8 8 8 8 8 8 8 8 9 8 8 8 8 8 8 8 8 8 8 8 8 8 8 8 8 8 8 8 7 7
9 9 8 7 7 8 7 9 11 10 10 10 10 10 9 9 9 8 8 8 8 8 8 8 8 8 8 8 8 8 8 8 8 8 8 8 8 8 8 8 7 7 7 7 7 7 7 7 7
Wind_Speed
12 10 5 2 3 5 8 5 4 3 2 3 4 3 4 5 2 5 5 7 9 11 12 12 12 11 11 10 10 9 9 8 9 9 10 9 9 9 9 9 9 9 9 9 8 8 8 8 8
10 6 3 3 4 6 5 5 4 1 2 3 3 2 2 2 3 5 5 7 8 9 11 11 12 11 10 10 10 10 9 8 9 9 9 9 9 9 9 8 8 8 8 8 8 8 8 7 7
8 6 3 3 5 6 3 1 1 3 2 2 2 4 2 1 3 3 5 6 6 8 9 11 11 10 10 10 10 9 9 8 8 8 9 9 8 8 8 8 8 8 8 7 7 7 7 7 7
4 3 4 4 8 6 4 2 3 2 3 1 0 2 1 3 3 2 4 4 6 7 9 9 11 10 9 10 11 10 9 8 8 8 8 8 7 7 8 8 8 8 8 7 6 6 6 5 5
3 3 4 5 8 5 1 2 2 3 3 3 2 2 2 3 4 3 2 3 5 6 8 9 9 10 10 10 11 10 9 8 8 8 8 7 7 6 7 8 8 7 7 7 6 5 5 4 4
3 3 4 6 7 4 1 0 2 3 3 4 4 3 2 1 3 1 2 3 4 5 7 8 9 10 10 10 10 10 9 8 8 8 8 7 7 6 6 7 8 7 7 6 6 5 4 4 4
3 3 5 6 6 4 2 1 2 3 4 4 4 2 2 2 2 1 2 3 3 4 5 7 9 10 11 10 10 10 9 9 8 8 8 8 7 7 6 6 7 7 7 7 6 5 4 4 4
3 3 5 6 6 4 1 0 2 5 4 4 4 2 3 3 1 1 3 2 2 2 3 4 7 8 9 10 10 10 10 10 9 9 9 9 8 8 7 6 8 7 7 6 6 5 4 4 4
3 3 4 4 4 2 1 2 3 5 3 3 3 4 2 4 3 2 2 2 2 2 2 3 4 6 7 8 9 10 10 9 10 9 10 9 8 7 7 7 8 8 7 7 6 5 4 4 5
3 3 4 3 3 3 2 3 2 2 5 5 2 1 3 4 3 3 3 3 2 2 2 2 3 4 5 6 7 7 7 7 8 7 8 7 6 5 5 7 8 8 7 6 6 6 6 5 5
3 4 4 4 4 4 3 3 2 4 6 6 3 2 3 3 4 4 4 3 3 2 2 2 3 3 5 4 4 4 4 5 6 7 6 5 4 4 4 4 5 6 6 5 5 5 5 6 5
4 5 5 4 3 4 4 3 3 5 5 4 2 2 3 4 4 4 3 3 2 2 2 2 3 3 3 4 3 3 3 3 3 6 6 4 3 2 3 2 3 4 4 3 3 4 5 6 5
6 5 4 4 4 5 5 5 4 6 5 3 1 2 4 3 3 2 2 2 2 2 2 2 2 3 3 3 3 3 3 3 4 5 5 4 3 2 2 1 2 2 2 2 2 3 3 3 3
4 4 5 4 5 5 5 5 2 5 4 1 1 2 3 3 2 2 1 2 1 2 2 2 1 2 2 3 3 3 3 4 4 4 5 5 4 2 2 2 1 1 1 1 1 2 2 2 2
4 5 5 5 5 3 3 5 4 4 2 2 2 2 2 3 2 2 2 2 1 1 2 2 1 1 2 2 2 2 3 3 3 4 5 5 4 3 2 2 1 0 1 1 1 2 1 1 1
5 4 3 3 4 2 2 5 3 2 2 2 2 2 2 2 2 2 2 2 2 2 2 2 2 1 1 2 2 2 2 3 3 4 4 5 4 3 2 2 1 0 0 0 1 1 0 1 1
4 3 3 2 3 2 3 4 1 1 1 2 1 1 1 1 1 1 2 3 3 3 3 3 2 2 1 2 2 2 2 2 2 3 4 4 4 3 2 1 1 1 1 0 1 0 0 0 1
3 4 4 3 2 2 4 5 2 2 2 2 1 1 2 2 2 2 3 3 3 3 3 4 3 2 2 2 2 2 3 2 2 2 3 4 3 3 2 1 1 1 1 1 1 0 0 0 1
6 7 6 3 1 3 6 7 5 3 3 2 2 1 2 2 3 4 4 4 4 3 4 3 3 2 2 2 1 2 2 2 2 2 3 3 3 3 2 1 1 1 1 1 1 1 1 0 0
8 7 5 2 1 4 6 8 5 4 4 2 2 2 2 2 3 4 4 4 3 3 3 3 3 2 2 1 1 1 2 2 2 2 2 2 2 2 2 2 1 1 1 1 1 1 1 0 1
7 5 5 4 4 5 5 5 5 4 3 3 2 2 1 2 3 4 4 4 3 3 2 2 2 3 2 2 2 2 2 1 1 1 1 1 2 2 1 1 1 1 2 2 1 1 1 1 1
6 3 4 4 3 3 3 3 4 4 4 4 4 3 2 2 3 4 4 4 3 3 2 2 2 2 2 3 2 2 2 2 1 2 2 2 2 2 2 1 1 2 1 1 2 1 1 2 2
5 6 5 5 5 5 5 4 4 4 4 4 4 4 4 3 4 4 4 4 4 4 3 3 2 2 2 2 2 2 2 2 1 2 3 2 2 2 2 2 2 2 2 2 2 1 1 1 2
4 5 5 4 3 4 6 5 4 4 5 5 5 4 4 4 4 4 4 5 4 4 3 3 2 1 1 2 2 3 2 2 2 2 2 2 2 1 2 2 2 1 2 2 2 2 2 1 1
3 1 1 1 3 5 2 4 4 3 3 5 5 4 4 4 4 4 4 4 3 3 3 2 2 1 1 2 3 3 3 3 3 2 2 2 1 1 1 1 2 2 2 2 2 2 2 2 2
4 2 2 2 3 3 2 5 2 4 6 6 6 5 4 4 4 3 3 3 3 3 3 2 2 1 1 2 3 2 2 2 2 2 2 2 2 1 1 1 1 1 1 1 2 2 2 2 2
2 2 2 3 4 4 5 3 2 3 5 5 5 5 3 3 3 4 3 3 3 3 2 2 2 1 1 3 3 3 2 2 2 2 1 1 1 1 2 1 1 1 1 2 2 2 2 2 3
3 3 1 2 2 4 5 4 4 5 4 4 4 3 2 2 2 3 3 2 2 2 2 2 2 1 1 2 2 2 2 2 2 2 2 2 2 2 2 2 2 2 2 2 2 2 2 3 3
3 2 3 3 3 3 4 2 2 4 4 4 3 3 2 2 2 3 3 3 3 3 2 2 1 1 1 1 2 2 1 2 2 2 2 2 2 2 2 2 2 2 2 2 3 3 3 3 3
3 4 4 2 4 3 3 4 2 5 4 2 2 2 2 2 2 2 2 2 2 2 2 2 2 2 1 1 1 1 2 2 2 2 2 2 2 2 2 2 2 2 2 3 3 4 4 4 4
Wind_Direction
303 283 270 262 240 231 234 233 248 254 281 350 5 350 356 343 2 108 118 82 99 120 128 133 132 136 138 138 137 134 129 131 137 141 140 138 136 132 128 128 125 121 117 113 110 108 108 110 114
299 293 269 236 238 236 231 221 229 291 348 353 339 328 2 346 49 97 94 79 94 113 124 133 132 137 143 143 141 138 135 135 140 144 144 141 141 139 136 135 131 127 122 117 112 108 107 110 114
280 273 252 233 235 241 257 255 53 21 357 317 329 331 344 39 58 80 89 89 93 106 118 131 135 138 146 149 148 143 138 140 140 144 147 143 141 145 143 140 137 132 126 121 118 115 112 113 114
280 241 234 239 244 249 272 323 24 341 297 261 246 332 356 7 18 52 83 89 98 109 112 129 139 143 146 152 152 149 145 144 146 146 148 146 145 147 149 144 140 134 128 127 126 124 121 121 124
241 252 231 232 244 249 277 334 336 307 278 274 250 262 301 348 36 58 72 87 99 111 114 135 143 146 145 149 152 150 146 147 150 149 151 153 153 148 152 149 145 140 136 137 139 138 138 139 142
248 244 235 233 241 243 236 343 290 288 300 295 271 256 259 83 55 56 64 70 88 108 119 138 148 145 145 150 152 152 149 151 155 156 152 156 159 154 149 155 153 151 148 147 148 148 148 158 166
266 258 246 250 247 240 231 45 281 285 295 293 304 292 203 177 110 92 90 77 72 105 129 141 154 154 151 151 154 157 157 158 162 164 161 161 164 162 159 155 159 157 156 155 155 156 161 172 189
289 282 255 255 256 252 195 57 303 289 286 314 312 251 199 170 147 101 91 87 86 98 129 148 154 157 152 150 156 160 165 167 170 172 171 170 170 170 166 162 165 165 167 166 166 169 180 194 209
267 248 251 259 259 269 353 312 318 324 289 284 305 309 164 146 149 128 125 128 136 132 145 155 159 151 152 155 161 161 167 174 174 174 173 171 173 171 168 167 169 169 173 177 178 183 192 205 217
230 241 253 285 315 299 293 297 297 282 281 277 290 44 127 158 175 185 186 176 173 164 170 169 170 161 157 162 160 167 167 169 171 161 162 169 170 167 165 167 180 184 184 185 192 198 199 207 214
236 252 281 296 333 309 283 282 267 254 265 262 249 170 160 183 198 196 193 182 184 170 169 178 173 172 162 157 157 157 157 166 170 159 162 159 140 137 140 153 166 178 177 182 192 197 208 220 214
244 262 277 284 307 288 279 273 272 261 277 309 281 175 176 193 198 193 187 166 164 154 172 167 168 172 168 156 162 161 154 166 158 153 162 147 126 128 132 149 167 172 178 178 193 218 228 233 218
241 262 269 279 281 276 275 269 262 260 275 316 358 169 178 192 201 195 178 158 160 158 171 167 163 177 173 166 179 159 154 161 151 150 166 148 134 140 135 140 149 164 181 182 213 242 249 249 234
250 267 265 258 259 261 265 261 247 262 268 246 187 197 197 190 180 165 167 139 134 146 150 145 171 177 177 184 181 163 155 158 150 147 153 143 128 133 144 142 132 158 160 179 228 252 252 259 262
247 250 254 228 225 236 254 262 231 247 247 235 213 201 192 184 173 166 160 141 144 164 141 136 159 174 182 165 172 150 148 141 148 149 148 139 128 129 132 137 136 148 159 176 254 277 304 280 281
227 230 239 213 188 194 233 263 240 194 200 226 211 191 186 177 154 143 137 128 116 122 129 142 158 158 159 131 141 148 138 135 141 145 138 137 132 134 130 137 150 30 76 90 182 218 287 301 298
218 250 255 228 177 195 232 272 311 121 191 233 228 202 197 169 123 115 116 110 105 109 123 129 137 148 135 129 130 124 123 123 127 131 136 136 138 145 131 148 138 56 57 126 190 107 81 323 318
267 268 268 250 207 254 249 260 269 227 218 212 220 226 154 150 137 104 96 103 100 102 109 109 114 118 113 108 114 111 112 107 105 115 138 136 134 134 122 142 114 76 121 149 168 168 6 253 267
291 277 279 292 20 268 253 258 262 235 210 212 219 213 143 136 119 108 104 104 101 93 89 88 93 97 90 88 129 138 129 106 96 99 117 138 138 133 136 142 126 121 148 182 164 92 54 350 9
277 281 285 317 341 285 266 265 251 216 200 197 197 199 161 148 117 107 102 96 87 91 98 96 86 85 97 101 109 113 110 99 103 94 95 118 128 130 147 144 155 150 140 133 106 93 90 357 37
276 275 296 302 297 253 269 274 231 206 181 159 149 151 153 145 142 133 118 107 99 92 98 106 112 104 95 91 82 89 87 77 85 104 110 120 128 125 126 136 149 151 153 173 173 142 118 166 302
277 311 301 293 298 260 222 277 237 195 186 178 171 167 186 163 139 134 127 122 119 114 104 106 120 121 124 121 126 137 136 145 158 141 141 142 139 134 134 152 160 159 160 172 190 158 163 170 202
287 317 288 267 263 274 242 244 253 173 199 200 177 164 165 151 135 132 133 133 120 111 110 104 106 124 133 142 156 162 136 125 117 118 135 141 142 152 146 140 164 167 174 186 189 170 193 197 201
281 287 270 246 251 258 228 218 251 197 207 186 168 148 140 130 125 122 116 110 102 100 104 106 108 125 133 150 169 179 166 159 138 133 142 151 149 160 161 151 162 174 184 190 186 184 200 223 226
274 302 359 308 230 239 202 211 237 170 129 133 137 132 127 123 121 119 115 114 114 115 119 125 131 163 172 179 187 186 187 181 175 171 178 169 157 158 172 127 155 173 195 196 182 186 202 207 206
266 259 184 228 251 268 255 225 213 108 97 101 107 109 107 117 119 119 126 131 132 138 144 143 147 166 223 190 188 182 178 173 176 182 181 180 170 150 134 121 158 170 199 199 179 189 208 212 206
277 242 277 289 287 270 238 195 139 106 100 102 107 106 122 128 129 136 137 138 139 145 153 153 146 171 206 183 177 174 178 176 177 178 179 175 163 155 158 161 168 170 194 204 194 201 217 219 214
279 300 259 218 259 271 262 225 203 174 165 140 130 129 124 134 139 146 149 151 147 147 137 133 141 163 160 163 166 164 180 173 171 167 185 185 184 181 179 185 192 190 198 205 204 217 223 224 229
213 236 247 252 253 247 276 274 53 132 144 145 149 151 162 166 169 168 158 159 155 148 149 148 147 140 125 136 153 157 172 173 173 179 193 192 193 191 192 201 210 211 219 216 210 217 222 227 236
247 229 204 213 259 245 268 274 62 83 88 93 130 138 144 159 157 152 154 148 151 157 159 160 161 149 143 131 134 165 174 175 178 183 198 200 206 202 196 204 219 229 231 228 221 224 227 228 230
Height
1496 1497 1499 1502 1503 1502 1496 1487 1482 1483 1483 1485 1486 1486 1488 1491 1492 1501 1500 1498 1499 1499 1501 1503 1505 1507 1509 1511 1513 1515 1516 1518 1520 1522 1523 1524 1526 1527 1528 1530 1531 1532 1533 1534 1535 1537 1537 1538 1539
1495 1498 1500 1501 1501 1501 1493 1484 1484 1485 1486 1486 1487 1488 1489 1492 1493 1496 1497 1498 1498 1499 1501 1503 1505 1507 1509 1510 1512 1514 1516 1518 1520 1521 1523 1525 1526 1527 1528 1530 1531 1532 1533 1534 1536 1537 1538 1538 1539
1495 1497 1500 1498 1496 1496 1489 1483 1484 1486 1486 1487 1488 1489 1491 1492 1493 1495 1496 1497 1499 1500 1501 1503 1505 1506 1508 1510 1512 1514 1515 1517 1519 1521 1523 1524 1526 1527 1528 1530 1531 1532 1533 1534 1535 1536 1537 1538 1539
1496 1498 1499 1498 1494 1487 1484 1483 1484 1486 1487 1488 1489 1490 1491 1494 1494 1494 1496 1497 1498 1499 1500 1502 1504 1506 1507 1509 1511 1513 1515 1517 1519 1520 1522 1523 1525 1527 1528 1529 1531 1532 1533 1534 1535 1536 1537 1538 1539
1496 1497 1497 1495 1490 1485 1483 1484 1486 1487 1487 1488 1488 1490 1492 1493 1493 1494 1495 1497 1497 1498 1500 1501 1503 1505 1507 1508 1510 1512 1514 1516 1518 1519 1521 1523 1524 1526 1528 1529 1530 1532 1533 1534 1535 1536 1537 1538 1539
1497 1495 1496 1495 1488 1483 1484 1485 1487 1487 1487 1488 1488 1489 1491 1492 1492 1494 1495 1496 1497 1497 1498 1500 1502 1504 1506 1507 1509 1511 1513 1515 1517 1518 1520 1521 1523 1525 1526 1528 1529 1531 1532 1533 1534 1535 1536 1537 1539
1497 1494 1493 1489 1486 1484 1484 1485 1487 1487 1488 1488 1488 1488 1489 1490 1491 1493 1494 1495 1496 1496 1497 1499 1500 1503 1504 1506 1508 1510 1512 1514 1516 1517 1519 1521 1522 1524 1526 1527 1528 1530 1531 1532 1533 1535 1536 1537 1538
1495 1495 1491 1488 1486 1485 1484 1485 1487 1488 1487 1488 1488 1487 1488 1489 1489 1491 1492 1493 1494 1495 1496 1497 1499 1501 1503 1505 1507 1509 1511 1513 1515 1516 1518 1520 1521 1523 1525 1526 1528 1529 1530 1531 1533 1534 1535 1536 1537
1495 1497 1493 1488 1486 1484 1484 1485 1486 1487 1486 1486 1486 1486 1485 1487 1488 1489 1491 1492 1493 1493 1494 1495 1497 1499 1501 1503 1505 1507 1509 1511 1513 1515 1517 1518 1520 1522 1523 1525 1526 1528 1529 1530 1532 1533 1534 1535 1536
1494 1495 1489 1485 1484 1485 1485 1485 1486 1486 1485 1485 1485 1485 1484 1485 1486 1487 1488 1490 1491 1491 1492 1493 1495 1497 1499 1501 1503 1505 1507 1510 1512 1514 1515 1517 1519 1521 1522 1524 1525 1527 1528 1529 1530 1532 1533 1534 1535
1491 1490 1486 1485 1484 1485 1485 1485 1485 1485 1485 1483 1482 1483 1483 1484 1485 1486 1487 1488 1489 1490 1491 1492 1493 1496 1497 1499 1501 1503 1505 1508 1510 1512 1514 1515 1517 1519 1520 1522 1524 1525 1527 1528 1529 1530 1531 1532 1533
1490 1487 1486 1485 1485 1485 1485 1485 1484 1484 1483 1481 1480 1481 1481 1482 1484 1484 1485 1487 1488 1488 1489 1490 1492 1493 1495 1497 1499 1501 1503 1505 1507 1509 1512 1513 1515 1517 1519 1520 1522 1524 1525 1526 1528 1529 1530 1531 1532
1488 1486 1486 1485 1485 1484 1484 1483 1482 1482 1481 1480 1479 1480 1480 1481 1482 1483 1484 1486 1486 1487 1487 1489 1490 1491 1493 1495 1497 1498 1500 1503 1505 1507 1510 1511 1513 1515 1517 1518 1520 1522 1523 1524 1526 1527 1528 1529 1530
1486 1486 1485 1484 1484 1484 1484 1482 1482 1480 1480 1479 1479 1479 1479 1480 1481 1482 1483 1483 1484 1485 1486 1487 1488 1489 1491 1493 1495 1496 1498 1501 1503 1505 1507 1510 1511 1513 1515 1517 1518 1520 1521 1523 1524 1525 1526 1527 1528
1485 1486 1484 1481 1482 1482 1483 1482 1479 1478 1478 1478 1478 1478 1479 1479 1480 1480 1481 1482 1482 1483 1484 1486 1487 1488 1489 1490 1492 1494 1496 1499 1501 1503 1505 1507 1509 1511 1513 1515 1516 1518 1519 1520 1522 1523 1524 1525 1525
1484 1484 1485 1479 1479 1480 1484 1483 1475 1476 1477 1477 1477 1477 1477 1478 1479 1479 1480 1480 1481 1482 1483 1484 1485 1486 1488 1488 1490 1492 1494 1496 1499 1501 1503 1505 1507 1509 1511 1513 1514 1516 1517 1518 1519 1520 1521 1522 1523
1484 1485 1482 1479 1477 1478 1481 1479 1475 1474 1475 1475 1476 1475 1475 1476 1477 1478 1478 1479 1480 1481 1482 1483 1484 1485 1487 1488 1488 1490 1492 1494 1497 1499 1501 1503 1505 1507 1508 1510 1512 1513 1514 1516 1517 1518 1519 1519 1520
1487 1484 1479 1479 1476 1477 1479 1477 1475 1474 1474 1474 1474 1475 1474 1475 1475 1476 1477 1478 1479 1480 1481 1482 1483 1484 1485 1485 1486 1488 1490 1492 1495 1497 1499 1500 1502 1504 1506 1508 1509 1511 1512 1513 1514 1516 1516 1517 1518
1482 1481 1479 1476 1475 1477 1477 1475 1473 1472 1472 1472 1472 1473 1473 1474 1475 1475 1476 1477 1478 1479 1480 1481 1482 1483 1483 1484 1485 1486 1488 1490 1493 1495 1496 1498 1500 1502 1503 1505 1507 1508 1509 1510 1512 1513 1514 1514 1515
1481 1481 1479 1477 1475 1476 1475 1472 1469 1468 1468 1469 1470 1471 1472 1473 1473 1474 1475 1476 1477 1478 1479 1480 1481 1482 1482 1483 1484 1485 1486 1488 1491 1493 1494 1495 1497 1499 1501 1503 1504 1505 1507 1508 1509 1510 1511 1512 1513
1480 1481 1480 1480 1477 1474 1475 1473 1467 1465 1466 1467 1468 1469 1470 1471 1472 1473 1474 1475 1476 1477 1478 1480 1481 1482 1483 1483 1484 1485 1485 1487 1488 1490 1491 1493 1494 1496 1498 1500 1501 1502 1504 1505 1507 1508 1509 1510 1511
1482 1477 1478 1478 1482 1481 1476 1484 1467 1463 1464 1465 1467 1468 1469 1470 1471 1472 1473 1474 1475 1476 1478 1479 1480 1481 1482 1483 1484 1484 1484 1485 1487 1488 1489 1491 1492 1494 1496 1497 1499 1500 1502 1503 1504 1505 1506 1507 1508
1481 1477 1477 1477 1479 1480 1475 1480 1469 1462 1465 1465 1465 1466 1468 1469 1470 1471 1472 1474 1475 1475 1476 1477 1478 1480 1481 1481 1482 1483 1483 1484 1485 1486 1487 1489 1490 1492 1494 1495 1496 1498 1499 1500 1501 1503 1504 1505 1505
1480 1479 1476 1476 1480 1486 1473 1476 1471 1465 1462 1461 1463 1465 1466 1468 1470 1471 1472 1472 1473 1474 1475 1476 1477 1478 1479 1480 1481 1482 1483 1484 1484 1484 1486 1487 1488 1490 1491 1492 1493 1495 1496 1497 1498 1500 1501 1502 1503
1481 1485 1490 1489 1488 1481 1465 1469 1468 1458 1457 1458 1461 1464 1466 1468 1469 1470 1471 1471 1472 1473 1474 1475 1476 1476 1477 1478 1479 1480 1481 1482 1483 1483 1484 1485 1486 1487 1488 1489 1491 1492 1493 1494 1495 1497 1498 1499 1499
1482 1482 1492 1494 1487 1477 1469 1470 1464 1456 1456 1458 1460 1463 1466 1467 1468 1469 1470 1471 1471 1472 1473 1474 1474 1474 1475 1475 1476 1478 1479 1480 1481 1482 1483 1483 1483 1484 1486 1487 1488 1489 1490 1491 1492 1493 1494 1495 1496
1482 1483 1482 1486 1482 1482 1471 1462 1461 1457 1458 1459 1461 1463 1465 1467 1468 1469 1470 1470 1471 1471 1472 1473 1472 1473 1473 1473 1475 1476 1477 1478 1479 1480 1480 1481 1481 1482 1484 1485 1485 1486 1487 1488 1489 1490 1491 1492 1493
1482 1481 1485 1488 1488 1482 1466 1460 1463 1461 1460 1460 1461 1463 1465 1466 1467 1468 1469 1470 1470 1471 1471 1472 1471 1471 1471 1472 1473 1474 1475 1476 1477 1477 1478 1478 1479 1480 1481 1482 1482 1483 1484 1485 1486 1487 1488 1489 1490
1483 1483 1483 1483 1482 1486 1479 1469 1455 1456 1457 1459 1461 1463 1464 1465 1466 1467 1468 1468 1469 1469 1470 1470 1470 1470 1470 1471 1471 1472 1473 1474 1474 1475 1476 1476 1477 1478 1479 1479 1480 1480 1481 1482 1483 1483 1484 1485 1486
1477 1477 1481 1489 1486 1482 1484 1476 1456 1456 1457 1458 1460 1462 1463 1464 1465 1465 1466 1467 1467 1468 1468 1468 1468 1468 1468 1469 1470 1470 1471 1471 1472 1473 1474 1474 1475 1476 1476 1477 1477 1477 1478 1478 1479 1480 1481 1481 1482